Location: Kumla
(59.1265°N, 15.1401°E)
Time: 09:40:44
(UTC+01:00)

Transit 2A - Pass Details

Date: 05 December 2023
Orbit: 600 x 953 km, 66.7° (Epoch: 22 February)

Event Time Altitude Azimuth Distance (km) Brightness Sun altitude
Rises 14:19:17 0° 159° (SSE) 3,142 9.7 2.9°
Reaches altitude 10° 14:23:19 10° 128° (SE) 2,138 8.4 2.6°
Maximum altitude 14:24:54 12° 109° (ESE) 2,006 8.0 2.5°
Drops below altitude 10° 14:26:26 10° 89° (E) 2,081 7.9 2.4°
Sets 14:30:13 0° 57° (ENE) 2,934 8.4 2.1°
